Find Starlink 6368

NORAD ID: 57234 Int'l Des: 2023-094 Owner: SPXS Country: US Constellation: starlink operational
LEOCIRCULAR

实时位置

正在加载3D地球...

关于 Starlink 6368

正在加载描述...

即将过境

Passes for default location (London). Set your location on the main map for personalized predictions.

高度历史

Loading altitude history...

两行轨道根数

1 57234U 23094S 26121.87770915 -.00000148 00000-0 41432-5 0 9998
2 57234 43.0022 90.0107 0000755 268.9665 91.1100 15.27575234155251
Epoch: May 1, 2026 • Age: 8 hours

当前状态

高度 483.0 km
速度 7.63 km/s
星下点 -1.57°S, 152.85°E
发射日期 Jul 7, 2023
运行时间 2.8 years
类型 internet

技术详情

分类 Payload
质量 305.00 kg
干质量 290.00 kg
总质量 305.00 kg
长度 0.20 m
直径 2.80 m
跨度 9.00 m
形状 Box + pan
制造商 SPXS
平台类型 Starlink
阶段状态 In Orbit
所有者/国家 SPXS/US

Most Searched